Time,TemperatureF,DewpointF,PressureIn,WindDirection,WindDirectionDegrees,WindSpeedMPH,WindSpeedGustMPH,Humidity,HourlyPrecipIn,Conditions,Clouds,dailyrainin,SolarRadiationWatts/m^2,SoftwareType,DateUTC
2013-01-08 00:01:00,27.0,23.0,-100.00,NNE,33,0.0,0.0,84,0.00,,,0.00,0.000000,,2013-01-08 05:01:00,
2013-01-08 00:22:00,27.0,23.0,-100.00,NNE,33,0.0,0.0,84,0.00,,,0.00,0.000000,,2013-01-08 05:22:00,
2013-01-08 00:33:00,27.0,23.0,-100.00,NNE,33,0.0,0.0,84,0.00,,,0.00,0.000000,,2013-01-08 05:33:00,
2013-01-08 00:43:00,27.0,23.0,-100.00,NNE,33,0.0,0.0,84,0.00,,,0.00,0.000000,,2013-01-08 05:43:00,
2013-01-08 00:53:00,27.0,23.0,-100.00,NNE,33,0.0,0.0,84,0.00,,,0.00,0.000000,,2013-01-08 05:53:00,
2013-01-08 01:01:00,28.0,24.0,-100.00,ENE,64,0.0,0.0,85,0.00,,,0.00,0.000000,,2013-01-08 06:01:00,
2013-01-08 01:22:00,28.0,24.0,-100.00,ENE,64,0.0,0.0,85,0.00,,,0.00,0.000000,,2013-01-08 06:22:00,
2013-01-08 01:33:00,28.0,24.0,-100.00,ENE,64,0.0,0.0,85,0.00,,,0.00,0.000000,,2013-01-08 06:33:00,
2013-01-08 01:43:00,28.0,24.0,-100.00,ENE,64,0.0,0.0,85,0.00,,,0.00,0.000000,,2013-01-08 06:43:00,
2013-01-08 01:53:00,28.0,24.0,-100.00,ENE,64,0.0,0.0,85,0.00,,,0.00,0.000000,,2013-01-08 06:53:00,
2013-01-08 02:01:00,29.0,27.0,-100.00,North,356,0.0,4.0,93,0.00,,,0.00,0.000000,,2013-01-08 07:01:00,
2013-01-08 02:32:00,29.0,27.0,-100.00,North,356,0.0,4.0,93,0.00,,,0.00,0.000000,,2013-01-08 07:32:00,
2013-01-08 02:42:00,29.0,27.0,-100.00,North,356,0.0,4.0,93,0.00,,,0.00,0.000000,,2013-01-08 07:42:00,
2013-01-08 02:52:00,29.0,27.0,-100.00,North,356,0.0,4.0,93,0.00,,,0.00,0.000000,,2013-01-08 07:52:00,
2013-01-08 03:01:00,32.0,30.0,-100.00,North,357,0.0,4.0,94,0.00,,,0.00,0.000000,,2013-01-08 08:01:00,
2013-01-08 03:22:00,32.0,30.0,-100.00,North,357,0.0,4.0,94,0.00,,,0.00,0.000000,,2013-01-08 08:22:00,
2013-01-08 03:32:00,32.0,30.0,-100.00,North,357,0.0,4.0,94,0.00,,,0.00,0.000000,,2013-01-08 08:32:00,
2013-01-08 03:42:00,32.0,30.0,-100.00,North,357,0.0,4.0,94,0.00,,,0.00,0.000000,,2013-01-08 08:42:00,
2013-01-08 03:53:00,32.0,30.0,-100.00,North,357,0.0,4.0,94,0.00,,,0.00,0.000000,,2013-01-08 08:53:00,
2013-01-08 04:01:00,33.0,31.0,-100.00,North,350,1.0,4.0,94,0.00,,,0.00,0.000000,,2013-01-08 09:01:00,
2013-01-08 04:22:00,33.0,31.0,-100.00,North,350,1.0,4.0,94,0.00,,,0.00,0.000000,,2013-01-08 09:22:00,
2013-01-08 04:33:00,33.0,31.0,-100.00,North,350,1.0,4.0,94,0.00,,,0.00,0.000000,,2013-01-08 09:33:00,
2013-01-08 04:42:00,33.0,31.0,-100.00,North,350,1.0,4.0,94,0.00,,,0.00,0.000000,,2013-01-08 09:42:00,
2013-01-08 04:53:00,33.0,31.0,-100.00,North,350,1.0,4.0,94,0.00,,,0.00,0.000000,,2013-01-08 09:53:00,
2013-01-08 05:01:00,33.0,30.0,-100.00,North,349,0.0,4.0,90,0.00,,,0.00,0.000000,,2013-01-08 10:01:00,
2013-01-08 05:33:00,33.0,30.0,-100.00,North,349,0.0,4.0,90,0.00,,,0.00,0.000000,,2013-01-08 10:33:00,
2013-01-08 05:43:00,33.0,30.0,-100.00,North,349,0.0,4.0,90,0.00,,,0.00,0.000000,,2013-01-08 10:43:00,
2013-01-08 05:53:00,33.0,30.0,-100.00,North,349,0.0,4.0,90,0.00,,,0.00,0.000000,,2013-01-08 10:53:00,
2013-01-08 06:01:00,32.0,30.0,-100.00,NNW,338,1.0,6.0,92,0.00,,,0.00,0.000000,,2013-01-08 11:01:00,
2013-01-08 06:33:00,32.0,30.0,-100.00,NNW,338,1.0,6.0,92,0.00,,,0.00,0.000000,,2013-01-08 11:33:00,
2013-01-08 06:43:00,32.0,30.0,-100.00,NNW,338,1.0,6.0,92,0.00,,,0.00,0.000000,,2013-01-08 11:43:00,
2013-01-08 06:53:00,32.0,30.0,-100.00,NNW,338,1.0,6.0,92,0.00,,,0.00,0.000000,,2013-01-08 11:53:00,
2013-01-08 07:01:00,33.0,30.0,-100.00,NW,325,1.0,7.0,89,0.00,,,0.00,0.000000,,2013-01-08 12:01:00,
2013-01-08 07:33:00,33.0,30.0,-100.00,NW,325,1.0,7.0,89,0.00,,,0.00,0.000000,,2013-01-08 12:33:00,
2013-01-08 07:43:00,33.0,30.0,-100.00,NW,325,1.0,7.0,89,0.00,,,0.00,0.000000,,2013-01-08 12:43:00,
2013-01-08 07:53:00,33.0,30.0,-100.00,NW,325,1.0,7.0,89,0.00,,,0.00,0.000000,,2013-01-08 12:53:00,
2013-01-08 08:01:00,35.0,32.0,-100.00,NNW,337,1.0,5.0,87,0.00,,,0.00,17.000000,,2013-01-08 13:01:00,
2013-01-08 08:33:00,35.0,32.0,-100.00,NNW,337,1.0,5.0,87,0.00,,,0.00,17.000000,,2013-01-08 13:33:00,
2013-01-08 08:43:00,35.0,32.0,-100.00,NNW,337,1.0,5.0,87,0.00,,,0.00,17.000000,,2013-01-08 13:43:00,
2013-01-08 08:53:00,35.0,32.0,-100.00,NNW,337,1.0,5.0,87,0.00,,,0.00,17.000000,,2013-01-08 13:53:00,
2013-01-08 09:01:00,43.0,32.0,-100.00,NNW,332,4.0,11.0,66,0.00,,,0.00,149.000000,,2013-01-08 14:01:00,
2013-01-08 09:33:00,43.0,32.0,-100.00,NNW,332,4.0,11.0,66,0.00,,,0.00,149.000000,,2013-01-08 14:33:00,
2013-01-08 09:43:00,43.0,32.0,-100.00,NNW,332,4.0,11.0,66,0.00,,,0.00,149.000000,,2013-01-08 14:43:00,
2013-01-08 09:53:00,43.0,32.0,-100.00,NNW,332,4.0,11.0,66,0.00,,,0.00,149.000000,,2013-01-08 14:53:00,
2013-01-08 10:01:00,46.0,33.0,-100.00,NNW,334,5.0,16.0,61,0.00,,,0.00,287.000000,,2013-01-08 15:01:00,
2013-01-08 10:23:00,46.0,33.0,-100.00,NNW,334,5.0,16.0,61,0.00,,,0.00,287.000000,,2013-01-08 15:23:00,
2013-01-08 10:33:00,46.0,33.0,-100.00,NNW,334,5.0,16.0,61,0.00,,,0.00,287.000000,,2013-01-08 15:33:00,
2013-01-08 10:43:00,46.0,33.0,-100.00,NNW,334,5.0,16.0,61,0.00,,,0.00,287.000000,,2013-01-08 15:43:00,
2013-01-08 10:53:00,46.0,33.0,-100.00,NNW,334,5.0,16.0,61,0.00,,,0.00,287.000000,,2013-01-08 15:53:00,
2013-01-08 11:01:00,48.0,31.0,-100.00,NNW,334,5.0,16.0,51,0.00,,,0.00,397.000000,,2013-01-08 16:01:00,
2013-01-08 11:34:00,48.0,31.0,-100.00,NNW,334,5.0,16.0,51,0.00,,,0.00,397.000000,,2013-01-08 16:34:00,
2013-01-08 11:43:00,48.0,31.0,-100.00,NNW,334,5.0,16.0,51,0.00,,,0.00,397.000000,,2013-01-08 16:43:00,
2013-01-08 11:53:00,48.0,31.0,-100.00,NNW,334,5.0,16.0,51,0.00,,,0.00,397.000000,,2013-01-08 16:53:00,
2013-01-08 12:01:00,50.0,31.0,-100.00,NNW,332,5.0,15.0,47,0.00,,,0.00,458.000000,,2013-01-08 17:01:00,
2013-01-08 12:34:00,50.0,31.0,-100.00,NNW,332,5.0,15.0,47,0.00,,,0.00,458.000000,,2013-01-08 17:34:00,
2013-01-08 12:43:00,50.0,31.0,-100.00,NNW,332,5.0,15.0,47,0.00,,,0.00,458.000000,,2013-01-08 17:43:00,
2013-01-08 12:54:00,50.0,31.0,-100.00,NNW,332,5.0,15.0,47,0.00,,,0.00,458.000000,,2013-01-08 17:54:00,
2013-01-08 13:01:00,49.0,29.0,-100.00,NW,324,6.0,16.0,46,0.00,,,0.00,465.000000,,2013-01-08 18:01:00,
2013-01-08 13:24:00,49.0,29.0,-100.00,NW,324,6.0,16.0,46,0.00,,,0.00,465.000000,,2013-01-08 18:24:00,
2013-01-08 13:33:00,49.0,29.0,-100.00,NW,324,6.0,16.0,46,0.00,,,0.00,465.000000,,2013-01-08 18:33:00,
2013-01-08 13:43:00,49.0,29.0,-100.00,NW,324,6.0,16.0,46,0.00,,,0.00,465.000000,,2013-01-08 18:43:00,
2013-01-08 13:53:00,49.0,29.0,-100.00,NW,324,6.0,16.0,46,0.00,,,0.00,465.000000,,2013-01-08 18:53:00,
2013-01-08 14:01:00,49.0,31.0,-100.00,NNW,330,4.0,13.0,50,0.00,,,0.00,404.000000,,2013-01-08 19:01:00,
2013-01-08 14:33:00,49.0,31.0,-100.00,NNW,330,4.0,13.0,50,0.00,,,0.00,404.000000,,2013-01-08 19:33:00,
2013-01-08 14:43:00,49.0,31.0,-100.00,NNW,330,4.0,13.0,50,0.00,,,0.00,404.000000,,2013-01-08 19:43:00,
2013-01-08 14:53:00,49.0,31.0,-100.00,NNW,330,4.0,13.0,50,0.00,,,0.00,404.000000,,2013-01-08 19:53:00,
2013-01-08 15:01:00,48.0,31.0,-100.00,NNW,329,4.0,12.0,52,0.00,,,0.00,279.000000,,2013-01-08 20:01:00,
2013-01-08 15:23:00,48.0,31.0,-100.00,NNW,329,4.0,12.0,52,0.00,,,0.00,279.000000,,2013-01-08 20:23:00,
2013-01-08 15:33:00,48.0,31.0,-100.00,NNW,329,4.0,12.0,52,0.00,,,0.00,279.000000,,2013-01-08 20:33:00,
2013-01-08 15:43:00,48.0,31.0,-100.00,NNW,329,4.0,12.0,52,0.00,,,0.00,279.000000,,2013-01-08 20:43:00,
2013-01-08 15:54:00,48.0,31.0,-100.00,NNW,329,4.0,12.0,52,0.00,,,0.00,279.000000,,2013-01-08 20:54:00,
2013-01-08 16:01:00,44.0,31.0,-100.00,NNW,330,3.0,11.0,61,0.00,,,0.00,66.000000,,2013-01-08 21:01:00,
2013-01-08 16:33:00,44.0,31.0,-100.00,NNW,330,3.0,11.0,61,0.00,,,0.00,66.000000,,2013-01-08 21:33:00,
2013-01-08 16:43:00,44.0,31.0,-100.00,NNW,330,3.0,11.0,61,0.00,,,0.00,66.000000,,2013-01-08 21:43:00,
2013-01-08 16:53:00,44.0,31.0,-100.00,NNW,330,3.0,11.0,61,0.00,,,0.00,66.000000,,2013-01-08 21:53:00,
2013-01-08 17:01:00,41.0,34.0,-100.00,NW,316,3.0,11.0,77,0.00,,,0.00,12.000000,,2013-01-08 22:01:00,
2013-01-08 17:33:00,41.0,34.0,-100.00,NW,316,3.0,11.0,77,0.00,,,0.00,12.000000,,2013-01-08 22:33:00,
2013-01-08 17:43:00,41.0,34.0,-100.00,NW,316,3.0,11.0,77,0.00,,,0.00,12.000000,,2013-01-08 22:43:00,
2013-01-08 17:53:00,41.0,34.0,-100.00,NW,316,3.0,11.0,77,0.00,,,0.00,12.000000,,2013-01-08 22:53:00,
2013-01-08 18:01:00,40.0,36.0,-100.00,NNW,342,2.0,7.0,87,0.00,,,0.00,0.000000,,2013-01-08 23:01:00,
2013-01-08 18:33:00,40.0,36.0,-100.00,NNW,342,2.0,7.0,87,0.00,,,0.00,0.000000,,2013-01-08 23:33:00,
2013-01-08 18:43:00,40.0,36.0,-100.00,NNW,342,2.0,7.0,87,0.00,,,0.00,0.000000,,2013-01-08 23:43:00,
2013-01-08 18:53:00,40.0,36.0,-100.00,NNW,342,2.0,7.0,87,0.00,,,0.00,0.000000,,2013-01-08 23:53:00,
2013-01-08 19:01:00,39.0,37.0,-100.00,North,356,1.0,6.0,93,0.00,,,0.00,0.000000,,2013-01-09 00:01:00,
2013-01-08 19:33:00,39.0,37.0,-100.00,North,356,1.0,6.0,93,0.00,,,0.00,0.000000,,2013-01-09 00:33:00,
2013-01-08 19:43:00,39.0,37.0,-100.00,North,356,1.0,6.0,93,0.00,,,0.00,0.000000,,2013-01-09 00:43:00,
2013-01-08 19:53:00,39.0,37.0,-100.00,North,356,1.0,6.0,93,0.00,,,0.00,0.000000,,2013-01-09 00:53:00,
2013-01-08 20:01:00,38.0,37.0,-100.00,NNW,344,1.0,5.0,96,0.00,,,0.00,0.000000,,2013-01-09 01:01:00,
2013-01-08 20:33:00,38.0,37.0,-100.00,NNW,344,1.0,5.0,96,0.00,,,0.00,0.000000,,2013-01-09 01:33:00,
2013-01-08 20:43:00,38.0,37.0,-100.00,NNW,344,1.0,5.0,96,0.00,,,0.00,0.000000,,2013-01-09 01:43:00,
2013-01-08 20:53:00,38.0,37.0,-100.00,NNW,344,1.0,5.0,96,0.00,,,0.00,0.000000,,2013-01-09 01:53:00,
2013-01-08 21:01:00,40.0,37.0,-100.00,North,4,2.0,9.0,89,0.00,,,0.00,0.000000,,2013-01-09 02:01:00,
2013-01-08 21:33:00,40.0,37.0,-100.00,North,4,2.0,9.0,89,0.00,,,0.00,0.000000,,2013-01-09 02:33:00,
2013-01-08 21:43:00,40.0,37.0,-100.00,North,4,2.0,9.0,89,0.00,,,0.00,0.000000,,2013-01-09 02:43:00,
2013-01-08 21:53:00,40.0,37.0,-100.00,North,4,2.0,9.0,89,0.00,,,0.00,0.000000,,2013-01-09 02:53:00,
2013-01-08 22:01:00,39.0,35.0,-100.00,North,8,1.0,7.0,84,0.00,,,0.00,0.000000,,2013-01-09 03:01:00,
2013-01-08 22:33:00,39.0,35.0,-100.00,North,8,1.0,7.0,84,0.00,,,0.00,0.000000,,2013-01-09 03:33:00,
2013-01-08 22:43:00,39.0,35.0,-100.00,North,8,1.0,7.0,84,0.00,,,0.00,0.000000,,2013-01-09 03:43:00,
2013-01-08 22:53:00,39.0,35.0,-100.00,North,8,1.0,7.0,84,0.00,,,0.00,0.000000,,2013-01-09 03:53:00,
2013-01-08 23:01:00,37.0,34.0,-100.00,North,10,0.0,5.0,87,0.00,,,0.00,0.000000,,2013-01-09 04:01:00,
2013-01-08 23:23:00,37.0,34.0,-100.00,North,10,0.0,5.0,87,0.00,,,0.00,0.000000,,2013-01-09 04:23:00,
2013-01-08 23:33:00,37.0,34.0,-100.00,North,10,0.0,5.0,87,0.00,,,0.00,0.000000,,2013-01-09 04:33:00,
2013-01-08 23:43:00,37.0,34.0,-100.00,North,10,0.0,5.0,87,0.00,,,0.00,0.000000,,2013-01-09 04:43:00,
2013-01-08 23:52:00,37.0,34.0,-100.00,North,10,0.0,5.0,87,0.00,,,0.00,0.000000,,2013-01-09 04:52:00,